Skip Page Navigation
NASA JPL Caltech
NASA Logo - Jet Propulsion Laboratory + View the NASA Portal
+ Center for Near-Earth Object Studies
JPL Home Earth Solar System Stars & Galaxies Technology
JPL Solar System Dynamics
BODIES ORBITS EPHEMERIDES TOOLS PHYSICAL DATA DISCOVERY FAQ SITE MAP
JPL Small-Body Database Browser
Search: [ help ]  
413319 (2003 UE380)
Classification: Main-belt Asteroid          SPK-ID: 2413319
Ephemeris | Orbit Diagram | Orbital Elements | Mission Design | Physical Parameters | Discovery Circumstances | Close-Approach Data ]

[ show orbit diagram ]
Orbital Elements at Epoch 2459000.5 (2020-May-31.0) TDB
Reference: JPL 13 (heliocentric ecliptic J2000)
 Element Value Uncertainty (1-sigma)   Units 
e .1273192787938402 7.0088e-08  
a 3.073854155145305 4.3048e-08 au
q 2.682493260994756 2.3161e-07 au
i 9.893638638317476 1.2482e-05 deg
node 25.4063881291987 4.5381e-05 deg
peri 43.0542944941424 7.5547e-05 deg
M 344.0410355769581 5.7949e-05 deg
tp 2459087.762071668457
(2020-Aug-26.26207167)
0.00031767 TDB
period 1968.445130141899
5.39
4.1351e-05
1.132e-07
d
yr
n .1828854634998379 3.8419e-09 deg/d
Q 3.465215049295855 4.8529e-08 au
  Orbit Determination Parameters
   # obs. used (total)      92  
   data-arc span      5853 days (16.02 yr)  
   first obs. used      2003-10-19  
   last obs. used      2019-10-28  
   planetary ephem.      DE431  
   SB-pert. ephem.      SB431-N16  
   condition code      0  
   norm. resid. RMS      .63177  
   source      ORB  
   producer      Otto Matic  
   solution date      2019-Nov-08 14:36:10  

Additional Information
 Earth MOID = 1.7057 au 
 Jupiter MOID = 1.94251 au 
 T_jup = 3.195 
[ hide covariance matrix ]
Orbital Elements at Epoch 2457406.5 (2016-Jan-19.0) TDB
Reference: JPL 13 (heliocentric ecliptic J2000)
 Element Value Uncertainty (1-sigma)   Units 
e .1229334305267585 6.9317e-08  
q 2.698959085875481 2.275e-07 au
tp 2457113.405864542097
(2015-Mar-31.90586454)
0.00032027 TDB
node 25.47340560477549 4.539e-05 deg
peri 42.46909001365322 7.7927e-05 deg
i 9.891294581577464 1.2489e-05 deg
  Orbit Determination Parameters
   # obs. used (total)      92  
   data-arc span      5853 days (16.02 yr)  
   first obs. used      2003-10-19  
   last obs. used      2019-10-28  
   planetary ephem.      DE431  
   SB-pert. ephem.      SB431-N16  
   condition code      0  
   norm. resid. RMS      .63177  
   source      ORB  
   producer      Otto Matic  
   solution date      2019-Nov-08 14:36:10  

Additional Information
 Jupiter MOID = 1.94251 au 
 T_jup = 3.195 
Orbit Covariance (6×6)
  e q tp node peri i
e 4.804801864790187E-15 -1.557592002682486E-14 -9.525724763638929E-12 -1.962580992607056E-15 -1.788468831517658E-12 -1.026029833679953E-14
q -1.557592002682486E-14 5.175770926649584E-14 3.283865996335531E-11 -6.099306972998425E-15 6.237938025738937E-12 4.116492970398626E-14
tp -9.525724763638929E-12 3.283865996335531E-11 1.025712464605074E-7 1.699711197287424E-10 2.034613323925469E-8 -2.307268634551086E-11
node -1.962580992607056E-15 -6.099306972998425E-15 1.699711197287424E-10 2.060226862135838E-9 -1.996453257088617E-9 -2.951361034992621E-10
peri -1.788468831517658E-12 6.237938025738937E-12 2.034613323925469E-8 -1.996453257088617E-9 6.072614382778657E-9 2.862141975480725E-10
i -1.026029833679953E-14 4.116492970398626E-14 -2.307268634551086E-11 -2.951361034992621E-10 2.862141975480725E-10 1.559692313919696E-10

Ephemeris | Orbit Diagram | Orbital Elements | Mission Design | Physical Parameters | Discovery Circumstances | Close-Approach Data ]

Physical Parameter Table
Parameter Symbol Value Units Sigma Reference Notes
absolute magnitude H 16.7   n/a MPO455942  

413319 (2003 UE380)          Discovered 2003-Oct-22 by Sloan Digital Sky Survey at Apache Point
Reference: Last Updated: 2014-11-10

[ show close-approach data ]
Alternate Designations
 2003 UE380 = 2010 DT87 
Ephemeris | Orbit Diagram | Orbital Elements | Mission Design | Physical Parameters | Discovery Circumstances | Close-Approach Data ]
ABOUT SSD CREDITS/AWARDS PRIVACY/COPYRIGHT GLOSSARY LINKS
FirstGov 2020-Aug-04 12:16 UT
(server date/time)  
NASA Home Page
Site Manager:   Ryan S. Park
Webmaster  Alan B. Chamberlin